Simultaneous Nadir Overpasses (SNOs) Predictions

Prediction of SNOs between GOES-14 and AQUA Satellite Orbit:

Table of predicted SNOs for the next 14.0 days since TLE Epoch: 8/6/2022
Index Date Time (GOES-14) GOES-14 Lat,Lon AQUA Lat,Lon Distance(km) Time Diff (sec)
1 08/06/2022 08:43:37 -0.41,-104.44 -0.15,-105.68 140.83 80
2 08/08/2022 08:28:18 -0.42,-104.43 -0.78,-102.60 207.70 80
3 08/08/2022 20:49:37 0.43,-104.67 -0.22,-107.78 353.77 80
4 08/10/2022 20:36:58 0.44,-104.66 0.42,-104.70 4.79 80
5 08/12/2022 20:26:59 0.44,-104.66 1.08,-101.62 344.56 80
6 08/13/2022 08:48:07 -0.46,-104.43 0.02,-106.75 262.87 80
7 08/15/2022 08:32:48 -0.45,-104.43 -0.63,-103.67 86.79 80
8 08/15/2022 20:54:05 0.46,-104.64 -0.41,-108.84 477.58 80
9 08/17/2022 08:20:08 -0.45,-104.43 -1.24,-100.58 436.73 80
10 08/17/2022 20:41:26 0.46,-104.64 0.20,-105.75 126.99 80
11 08/19/2022 20:31:27 0.47,-104.64 0.88,-102.68 223.33 80
